FENGYUN 1C DEB

Satellite information

Favourite Embed

Satellite Type and Status

DEBRISIN ORBIT

Key statistics

Satellite FENGYUN 1C DEB at a glance.

Uptime

9494

Days in orbit

Revolutions

≈ 14.3

Per day

Orbit

SSO

Sun Synchronous Orbit

Inclination

99.1

Latest

Satellite identification and parameters

Extended collection of information and parameters for FENGYUN 1C DEB.

Object identification

Identified? True

Debris? True

Object name: FENGYUN 1C DEB

International designator: 1999-025DTF

Object number (NORAD): 36182

Object ID (CCSDS): 36182

Country: PEOPLES REPUBLIC OF CHINA (PRC)

Current information (Y/N): Y

RCS size: SMALL

Orbital parameters

Period: 100.502 minutes

Inclination: 99.0857 deg

SMA: 7160.484 km

Apoapsis: 798.841 km

Periapsis: 765.857 km

RAAN: 43.1653 deg

Eccentricy: 0.0023032

Argument of periapsis: 5.2837 deg

Mean anomaly: 354.8584 deg

Mean motion: 14.32811841 rev/day

Mean motion (dot): 0.00004371 rev/day2

B* drag term: 0.0016152 1/REarth

Two-line elements (TLE)

Creation date: May 7, 2025, 3:14 a.m.

Reference frame: TEME

Reference center: EARTH

Epoch: May 6, 2025, 11:22 a.m. UTC

TLE line 0: 0 FENGYUN 1C DEB

TLE line 1: 1 36182U 99025DTF 25126.47423136 .00004371 00000-0 16152-2 0 9993

TLE line 2: 2 36182 99.0857 43.1653 0023032 5.2837 354.8584 14.32811841848018

Live tracking on map

Real-time ground track for satellite FENGYUN 1C DEB.

In-orbit conjunctions

A list of the most updated potential collisions computed for object FENGYUN 1C DEB.

Target Orbit TCA Probability of collision Miss distance Type
CZ-6A DEB LEO 2024-11-08 17:17:54 0.001028799 260.0 (m) DEBRIS
CZ-6A DEB LEO 2024-11-07 09:23:21 0.0001444776 816.0 (m) DEBRIS
COSMOS 2251 DEB LEO 2024-11-04 06:31:32 0.0001152148 107.0 (m) DEBRIS

Associated space launch

Chinese polar orbiting meteorological satellite

FENGYUN 1C DEB was lifted into orbit during the mission ‘Long March 4B | Feng Yun 1C’, on board a Long March 4B space rocket.

The launch took place on May 10, 1999, 1:33 a.m. from Launch Complex 7.

For more information about the launch, click the button.

Launch to space Long March 4B | Feng Yun 1C
Long March 4B | Feng Yun 1C

Agency: N/A

Status: Launch Successful

Launch date: May 10, 1999, 1:33 a.m. UTC

Rocket: Long March 4B

Launch pad: Launch Complex 7

Location: Taiyuan Satellite Launch Center, People's Republic of China

...

Latest news about this satellite

There are no fresh news available about this satellite. Check back as we update our databases every day.


Newsletter sign-up

Weekly statistics, charts and insights to help you stay on top of the space industry.